Date String (YYYY-MM-DD hh:mm:ss) UTC,Instrument flags,absolute air pressure of the measurement (hPa),sample flow rate (lpm),inlet stack bypass flow (lpm),air temperature of the measurement (°C),ambient temperature measured by the external sensor (°C),aerosol sample conditioner tube jacket temperature (°C),OPC LED temperature (°C),internal box temperature (°C),relative humidity of the measurement (%),span deviation,mass concentration of particles derived from Lorenz-Mie calculation of OPC scattering (μg/m³),mass concentration of particles derived from Lorenz-Mie calculation of OPC scattering (μg/m³),mass concentration of particles derived from Lorenz-Mie calculation of OPC scattering (μg/m³)
DateTimeUTC,F1_M11,P_M11,Q1_M11,Q2_M11,T1_M11,T2_M11,T3_M11,T4_M11,T5_M11,U1_M11,ZSPAN_M11,X0_M11,X2_M11,X1_M11
2023-12-31 20:00:00,SystemResetWarning,0830.1,5.00,000.00,023.5,022.8,000.0,031.7,025.0,12.9,0000.0,0010.23,0004.93,0004.55
2023-12-31 20:01:00,SystemResetWarning,0830.1,5.00,000.00,023.5,022.8,000.0,031.7,025.0,12.9,0000.0,0010.29,0004.94,0004.54
2023-12-31 20:02:00,SystemResetWarning,0830.1,5.00,000.00,023.5,022.8,000.0,031.7,025.0,12.8,0000.0,0010.28,0004.94,0004.54
2023-12-31 20:03:00,SystemResetWarning,0830.0,5.00,000.00,023.5,022.9,000.0,031.7,025.0,12.9,0000.0,0010.08,0004.94,0004.54
2023-12-31 20:04:00,SystemResetWarning,0830.1,5.00,000.00,023.5,022.9,000.0,031.7,025.0,13.0,0000.0,0009.63,0004.95,0004.54
2023-12-31 20:05:00,SystemResetWarning,0830.1,5.01,000.00,023.5,022.9,000.0,031.7,025.0,13.1,0000.0,0009.41,0004.94,0004.52
2023-12-31 20:06:00,SystemResetWarning,0830.1,5.00,000.00,023.5,022.9,000.0,031.7,025.0,12.9,0000.0,0009.13,0004.94,0004.51
2023-12-31 20:07:00,SystemResetWarning,0830.1,5.01,000.00,023.6,022.9,000.0,031.8,025.0,13.0,0000.0,0008.85,0004.92,0004.49
2023-12-31 20:08:00,SystemResetWarning,0830.1,4.99,000.00,023.6,022.9,000.0,031.8,025.0,13.1,0000.0,0008.34,0004.87,0004.47
2023-12-31 20:09:00,SystemResetWarning,0830.1,4.98,000.00,023.6,022.9,000.0,031.8,025.0,12.9,0000.0,0008.40,0004.88,0004.46
2023-12-31 20:10:00,SystemResetWarning,0830.0,5.00,000.00,023.6,022.9,000.0,031.8,025.0,12.9,0000.0,0008.52,0004.91,0004.45
2023-12-31 20:11:00,SystemResetWarning,0830.0,5.01,000.00,023.6,022.9,000.0,031.8,025.0,13.0,0000.0,0007.93,0004.92,0004.44
2023-12-31 20:12:00,SystemResetWarning,0830.0,4.99,000.00,023.6,022.9,000.0,031.8,025.0,12.9,0000.0,0007.92,0004.91,0004.43
2023-12-31 20:13:00,SystemResetWarning,0830.0,5.00,000.00,023.6,022.9,000.0,031.8,025.0,12.9,0000.0,0008.07,0004.88,0004.42
2023-12-31 20:14:00,SystemResetWarning,0830.0,5.00,000.00,023.6,023.0,000.0,031.8,025.1,12.8,0000.0,0008.24,0004.89,0004.41
2023-12-31 20:15:00,SystemResetWarning,0830.0,5.00,000.00,023.7,023.0,000.0,031.8,025.1,12.9,0000.0,0008.45,0004.90,0004.41
2023-12-31 20:16:00,SystemResetWarning,0830.0,5.00,000.00,023.7,023.0,000.0,031.9,025.1,12.8,0000.0,0008.51,0004.91,0004.40
2023-12-31 20:17:00,SystemResetWarning,0830.0,5.00,000.00,023.7,023.0,000.0,031.9,025.1,12.8,0000.0,0008.51,0004.92,0004.41
2023-12-31 20:18:00,SystemResetWarning,0830.0,5.00,000.00,023.7,023.0,000.0,031.9,025.1,12.8,0000.0,0008.65,0004.94,0004.41
2023-12-31 20:19:00,SystemResetWarning,0830.0,5.00,000.00,023.7,023.0,000.0,031.9,025.1,12.7,0000.0,0008.74,0004.95,0004.41
2023-12-31 20:20:00,SystemResetWarning,0830.0,5.00,000.00,023.7,023.0,000.0,031.9,025.2,12.7,0000.0,0008.82,0004.95,0004.42
2023-12-31 20:21:00,SystemResetWarning,0830.0,5.00,000.00,023.7,023.0,000.0,031.9,025.2,12.7,0000.0,0008.74,0004.91,0004.42
2023-12-31 20:22:00,SystemResetWarning,0830.1,4.99,000.00,023.7,023.1,000.0,031.9,025.2,12.8,0000.0,0008.69,0004.90,0004.41
2023-12-31 20:23:00,SystemResetWarning,0830.0,5.00,000.00,023.7,023.1,000.0,031.9,025.2,12.8,0000.0,0008.62,0004.89,0004.41
2023-12-31 20:24:00,SystemResetWarning,0830.1,5.00,000.00,023.8,023.1,000.0,031.9,025.2,12.9,0000.0,0008.50,0004.90,0004.42
2023-12-31 20:25:00,SystemResetWarning,0830.0,5.01,000.00,023.8,023.1,000.0,032.0,025.2,12.9,0000.0,0008.35,0004.91,0004.41
2023-12-31 20:26:00,SystemResetWarning,0830.0,5.00,000.00,023.8,023.1,000.0,032.0,025.2,12.8,0000.0,0008.30,0004.92,0004.42
2023-12-31 20:27:00,SystemResetWarning,0830.0,5.00,000.00,023.8,023.1,000.0,032.0,025.3,12.7,0000.0,0008.15,0004.91,0004.42
2023-12-31 20:28:00,SystemResetWarning,0830.0,5.00,000.00,023.8,023.2,000.0,032.0,025.3,12.7,0000.0,0008.05,0004.87,0004.42
2023-12-31 20:29:00,SystemResetWarning,0830.0,5.00,000.00,023.8,023.2,000.0,032.0,025.3,12.8,0000.0,0008.11,0004.85,0004.42
2023-12-31 20:30:00,SystemResetWarning,0830.0,5.00,000.00,023.8,023.2,000.0,032.0,025.3,12.8,0000.0,0007.95,0004.84,0004.42
2023-12-31 20:31:00,SystemResetWarning,0830.0,5.00,000.00,023.9,023.2,000.0,032.0,025.3,12.8,0000.0,0008.07,0004.83,0004.41
2023-12-31 20:32:00,SystemResetWarning,0830.0,5.00,000.00,023.9,023.2,000.0,032.0,025.3,12.7,0000.0,0008.52,0004.87,0004.41
2023-12-31 20:33:00,SystemResetWarning,0830.0,5.00,000.00,023.9,023.2,000.0,032.1,025.3,12.7,0000.0,0008.54,0004.88,0004.42
2023-12-31 20:34:00,SystemResetWarning,0830.0,5.00,000.00,023.9,023.2,000.0,032.1,025.4,12.7,0000.0,0009.15,0004.89,0004.42
2023-12-31 20:35:00,SystemResetWarning,0830.0,5.00,000.00,023.9,023.3,000.0,032.1,025.4,12.6,0000.0,0009.47,0004.91,0004.43
2023-12-31 20:36:00,SystemResetWarning,0830.0,5.00,000.00,023.9,023.3,000.0,032.1,025.4,12.6,0000.0,0009.41,0004.90,0004.45
2023-12-31 20:37:00,SystemResetWarning,0830.0,5.00,000.00,023.9,023.3,000.0,032.1,025.4,12.7,0000.0,0010.03,0004.89,0004.46
2023-12-31 20:38:00,SystemResetWarning,0830.0,5.00,000.00,024.0,023.3,000.0,032.1,025.5,12.8,0000.0,0010.29,0004.88,0004.46
2023-12-31 20:39:00,SystemResetWarning,0830.0,5.00,000.00,024.0,023.3,000.0,032.1,025.5,12.8,0000.0,0011.18,0004.90,0004.48
2023-12-31 20:40:00,SystemResetWarning,0830.0,5.00,000.00,024.0,023.3,000.0,032.2,025.5,12.7,0000.0,0011.08,0004.91,0004.49
2023-12-31 20:41:00,SystemResetWarning,0830.0,5.00,000.00,024.0,023.4,000.0,032.2,025.5,12.6,0000.0,0011.14,0004.94,0004.50
2023-12-31 20:42:00,SystemResetWarning,0830.0,5.00,000.00,024.0,023.4,000.0,032.2,025.5,12.6,0000.0,0011.15,0004.96,0004.51
2023-12-31 20:43:00,SystemResetWarning,0830.0,5.00,000.00,024.0,023.4,000.0,032.2,025.5,12.6,0000.0,0010.66,0004.96,0004.53
2023-12-31 20:44:00,SystemResetWarning,0830.0,5.01,000.00,024.1,023.4,000.0,032.2,025.5,12.5,0000.0,0010.77,0004.97,0004.53
2023-12-31 20:45:00,SystemResetWarning,0830.0,5.00,000.00,024.1,023.4,000.0,032.2,025.5,12.6,0000.0,0010.86,0004.98,0004.54
2023-12-31 20:46:00,SystemResetWarning,0830.0,5.00,000.00,024.1,023.5,000.0,032.2,025.6,12.5,0000.0,0011.39,0004.98,0004.54
2023-12-31 20:47:00,SystemResetWarning,0830.0,4.99,000.00,024.1,023.5,000.0,032.3,025.6,12.5,0000.0,0011.91,0004.99,0004.53
2023-12-31 20:48:00,SystemResetWarning,0830.0,4.99,000.00,024.1,023.5,000.0,032.3,025.6,12.4,0000.0,0011.84,0005.00,0004.54
2023-12-31 20:49:00,SystemResetWarning,0830.0,5.01,000.00,024.1,023.5,000.0,032.3,025.6,12.4,0000.0,0011.44,0005.00,0004.53
2023-12-31 20:50:00,SystemResetWarning,0830.0,5.01,000.00,024.2,023.5,000.0,032.3,025.6,12.4,0000.0,0010.66,0005.02,0004.53
2023-12-31 20:51:00,SystemResetWarning,0830.0,5.00,000.00,024.2,023.5,000.0,032.3,025.6,12.3,0000.0,0010.54,0005.04,0004.54
2023-12-31 20:52:00,SystemResetWarning,0830.0,5.00,000.00,024.2,023.5,000.0,032.3,025.6,12.4,0000.0,0010.49,0005.02,0004.54
2023-12-31 20:53:00,SystemResetWarning,0830.0,5.00,000.00,024.2,023.6,000.0,032.3,025.6,12.4,0000.0,0010.41,0005.01,0004.54
2023-12-31 20:54:00,SystemResetWarning,0830.0,5.00,000.00,024.2,023.6,000.0,032.4,025.7,12.3,0000.0,0010.36,0005.04,0004.56
2023-12-31 20:55:00,SystemResetWarning,0830.0,4.99,000.00,024.2,023.6,000.0,032.4,025.7,12.3,0000.0,0010.31,0005.03,0004.56
2023-12-31 20:56:00,SystemResetWarning,0830.0,5.00,000.00,024.3,023.6,000.0,032.4,025.7,12.3,0000.0,0009.96,0005.02,0004.57
2023-12-31 20:57:00,SystemResetWarning,0830.0,5.00,000.00,024.3,023.6,000.0,032.4,025.7,12.3,0000.0,0009.55,0005.03,0004.58
2023-12-31 20:58:00,SystemResetWarning,0830.0,5.00,000.00,024.3,023.7,000.0,032.4,025.8,12.3,0000.0,0008.98,0005.02,0004.58
2023-12-31 20:59:00,SystemResetWarning,0830.0,5.00,000.00,024.3,023.7,000.0,032.4,025.8,12.3,0000.0,0009.30,0005.02,0004.58
